Time,TemperatureF,DewpointF,PressureIn,WindDirection,WindDirectionDegrees,WindSpeedMPH,WindSpeedGustMPH,Humidity,HourlyPrecipIn,Conditions,Clouds,dailyrainin,SoftwareType,DateUTC
2013-01-17 00:04:00,29.6,18.0,26.03,North,9,8.0,12.0,61,0.00,,,0.00,weatherlink.com 1.10,2013-01-17 07:04:00,
2013-01-17 00:19:00,29.0,17.0,26.04,NW,316,8.0,13.0,61,0.00,,,0.00,weatherlink.com 1.10,2013-01-17 07:19:00,
2013-01-17 00:34:00,28.4,17.0,26.04,NW,305,8.0,11.0,62,0.00,,,0.00,weatherlink.com 1.10,2013-01-17 07:34:00,
2013-01-17 00:49:00,27.5,16.0,26.04,WNW,299,12.0,14.0,63,0.00,,,0.00,weatherlink.com 1.10,2013-01-17 07:49:00,
2013-01-17 01:04:00,26.3,16.0,26.05,NW,315,6.0,10.0,65,0.00,,,0.00,weatherlink.com 1.10,2013-01-17 08:04:00,
2013-01-17 01:19:00,26.4,16.0,26.06,WNW,290,5.0,10.0,65,0.00,,,0.00,weatherlink.com 1.10,2013-01-17 08:19:00,
2013-01-17 01:34:00,26.1,16.0,26.06,WNW,285,3.0,10.0,65,0.00,,,0.00,weatherlink.com 1.10,2013-01-17 08:34:00,
2013-01-17 01:49:00,26.6,16.0,26.06,NW,305,10.0,10.0,64,0.00,,,0.00,weatherlink.com 1.10,2013-01-17 08:49:00,
2013-01-17 02:04:00,25.8,15.0,26.07,WNW,300,8.0,11.0,65,0.00,,,0.00,weatherlink.com 1.10,2013-01-17 09:04:00,
2013-01-17 02:19:00,24.5,15.0,26.07,WNW,293,8.0,12.0,67,0.00,,,0.00,weatherlink.com 1.10,2013-01-17 09:19:00,
2013-01-17 02:34:00,23.5,15.0,26.07,West,266,5.0,12.0,69,0.00,,,0.00,weatherlink.com 1.10,2013-01-17 09:34:00,
2013-01-17 02:49:00,21.7,14.0,26.07,WNW,299,6.0,7.0,73,0.00,,,0.00,weatherlink.com 1.10,2013-01-17 09:49:00,
2013-01-17 03:05:00,23.6,15.0,26.07,NW,315,6.0,9.0,69,0.00,,,0.00,weatherlink.com 1.10,2013-01-17 10:05:00,
2013-01-17 03:19:00,23.4,15.0,26.07,NW,308,4.0,10.0,69,0.00,,,0.00,weatherlink.com 1.10,2013-01-17 10:19:00,
2013-01-17 03:34:00,22.5,14.0,26.07,NW,315,5.0,8.0,70,0.00,,,0.00,weatherlink.com 1.10,2013-01-17 10:34:00,
2013-01-17 03:49:00,23.4,14.0,26.07,WNW,299,8.0,11.0,68,0.00,,,0.00,weatherlink.com 1.10,2013-01-17 10:49:00,
2013-01-17 04:04:00,22.8,14.0,26.07,WNW,289,6.0,13.0,69,0.00,,,0.00,weatherlink.com 1.10,2013-01-17 11:04:00,
2013-01-17 04:19:00,22.7,14.0,26.07,WNW,294,7.0,11.0,70,0.00,,,0.00,weatherlink.com 1.10,2013-01-17 11:19:00,
2013-01-17 04:34:00,24.8,15.0,26.08,WNW,297,8.0,14.0,65,0.00,,,0.00,weatherlink.com 1.10,2013-01-17 11:34:00,
2013-01-17 04:49:00,24.8,15.0,26.08,NW,308,9.0,12.0,65,0.00,,,0.00,weatherlink.com 1.10,2013-01-17 11:49:00,
2013-01-17 05:04:00,24.2,14.0,26.08,NW,304,6.0,13.0,66,0.00,,,0.00,weatherlink.com 1.10,2013-01-17 12:04:00,
2013-01-17 05:20:00,24.3,14.0,26.08,NW,304,5.0,13.0,65,0.00,,,0.00,weatherlink.com 1.10,2013-01-17 12:20:00,
2013-01-17 05:35:00,22.9,14.0,26.08,WNW,293,7.0,10.0,68,0.00,,,0.00,weatherlink.com 1.10,2013-01-17 12:35:00,
2013-01-17 05:50:00,25.8,14.0,26.08,NW,304,14.0,15.0,61,0.00,,,0.00,weatherlink.com 1.10,2013-01-17 12:50:00,
2013-01-17 06:05:00,24.3,14.0,26.08,West,278,7.0,13.0,64,0.00,,,0.00,weatherlink.com 1.10,2013-01-17 13:05:00,
2013-01-17 06:20:00,21.5,13.0,26.08,WNW,293,9.0,12.0,69,0.00,,,0.00,weatherlink.com 1.10,2013-01-17 13:20:00,
2013-01-17 06:35:00,22.6,13.0,26.08,WNW,299,9.0,15.0,67,0.00,,,0.00,weatherlink.com 1.10,2013-01-17 13:35:00,
2013-01-17 06:50:00,22.5,13.0,26.08,WNW,297,9.0,13.0,67,0.00,,,0.00,weatherlink.com 1.10,2013-01-17 13:50:00,
2013-01-17 07:05:00,21.4,13.0,26.09,WNW,299,7.0,10.0,70,0.00,,,0.00,weatherlink.com 1.10,2013-01-17 14:05:00,
2013-01-17 07:20:00,23.1,14.0,26.09,NW,304,6.0,10.0,67,0.00,,,0.00,weatherlink.com 1.10,2013-01-17 14:20:00,
2013-01-17 07:35:00,24.0,14.0,26.09,NW,315,8.0,9.0,66,0.00,,,0.00,weatherlink.com 1.10,2013-01-17 14:35:00,
2013-01-17 07:50:00,24.3,14.0,26.09,NW,319,6.0,9.0,65,0.00,,,0.00,weatherlink.com 1.10,2013-01-17 14:50:00,
2013-01-17 08:05:00,24.7,14.0,26.10,NW,304,8.0,8.0,65,0.00,,,0.00,weatherlink.com 1.10,2013-01-17 15:05:00,
2013-01-17 08:20:00,25.6,15.0,26.11,WNW,299,5.0,10.0,65,0.00,,,0.00,weatherlink.com 1.10,2013-01-17 15:20:00,
2013-01-17 08:35:00,27.2,16.0,26.11,WNW,296,7.0,9.0,62,0.00,,,0.00,weatherlink.com 1.10,2013-01-17 15:35:00,
2013-01-17 08:50:00,30.0,17.0,26.11,NW,321,9.0,10.0,59,0.00,,,0.00,weatherlink.com 1.10,2013-01-17 15:50:00,
2013-01-17 09:05:00,32.4,18.0,26.11,WNW,289,8.0,13.0,55,0.00,,,0.00,weatherlink.com 1.10,2013-01-17 16:05:00,
2013-01-17 09:20:00,34.9,19.0,26.11,WNW,284,6.0,11.0,52,0.00,,,0.00,weatherlink.com 1.10,2013-01-17 16:20:00,
2013-01-17 09:35:00,36.8,20.0,26.11,West,265,4.0,9.0,50,0.00,,,0.00,weatherlink.com 1.10,2013-01-17 16:35:00,
2013-01-17 09:50:00,38.6,20.0,26.11,WNW,291,5.0,11.0,47,0.00,,,0.00,weatherlink.com 1.10,2013-01-17 16:50:00,
2013-01-17 10:05:00,40.1,20.0,26.11,NW,304,11.0,12.0,44,0.00,,,0.00,weatherlink.com 1.10,2013-01-17 17:05:00,
2013-01-17 10:20:00,41.3,19.0,26.10,NW,314,6.0,13.0,41,0.00,,,0.00,weatherlink.com 1.10,2013-01-17 17:20:00,
2013-01-17 10:35:00,42.9,20.0,26.10,NW,312,6.0,9.0,40,0.00,,,0.00,weatherlink.com 1.10,2013-01-17 17:35:00,
2013-01-17 10:50:00,44.4,21.0,26.09,WNW,299,7.0,11.0,39,0.00,,,0.00,weatherlink.com 1.10,2013-01-17 17:50:00,
2013-01-17 11:05:00,44.7,20.0,26.08,WNW,290,4.0,11.0,37,0.00,,,0.00,weatherlink.com 1.10,2013-01-17 18:05:00,
2013-01-17 11:20:00,44.7,20.0,26.07,WNW,290,7.0,13.0,37,0.00,,,0.00,weatherlink.com 1.10,2013-01-17 18:20:00,
2013-01-17 11:35:00,45.7,19.0,26.07,WNW,294,9.0,15.0,34,0.00,,,0.00,weatherlink.com 1.10,2013-01-17 18:35:00,
2013-01-17 11:51:00,46.3,18.0,26.06,WNW,299,10.0,13.0,32,0.00,,,0.00,weatherlink.com 1.10,2013-01-17 18:51:00,
2013-01-17 12:06:00,46.9,18.0,26.05,WNW,291,7.0,15.0,32,0.00,,,0.00,weatherlink.com 1.10,2013-01-17 19:06:00,
2013-01-17 12:21:00,47.6,18.0,26.04,WNW,293,13.0,13.0,31,0.00,,,0.00,weatherlink.com 1.10,2013-01-17 19:21:00,
2013-01-17 12:36:00,48.1,19.0,26.04,WNW,287,4.0,13.0,31,0.00,,,0.00,weatherlink.com 1.10,2013-01-17 19:36:00,
2013-01-17 12:51:00,48.7,18.0,26.03,West,262,9.0,10.0,30,0.00,,,0.00,weatherlink.com 1.10,2013-01-17 19:51:00,
2013-01-17 13:06:00,49.1,19.0,26.02,West,278,8.0,11.0,30,0.00,,,0.00,weatherlink.com 1.10,2013-01-17 20:06:00,
2013-01-17 13:21:00,49.6,19.0,26.02,West,269,7.0,12.0,30,0.00,,,0.00,weatherlink.com 1.10,2013-01-17 20:21:00,
2013-01-17 13:36:00,49.3,18.0,26.01,West,268,11.0,16.0,29,0.00,,,0.00,weatherlink.com 1.10,2013-01-17 20:36:00,
2013-01-17 13:51:00,48.8,17.0,26.01,West,259,13.0,16.0,28,0.00,,,0.00,weatherlink.com 1.10,2013-01-17 20:51:00,
2013-01-17 14:06:00,47.9,17.0,26.00,West,277,7.0,19.0,29,0.00,,,0.00,weatherlink.com 1.10,2013-01-17 21:06:00,
2013-01-17 14:21:00,47.2,16.0,26.00,WSW,250,13.0,16.0,29,0.00,,,0.00,weatherlink.com 1.10,2013-01-17 21:21:00,
2013-01-17 14:36:00,47.1,15.0,26.00,West,267,10.0,15.0,28,0.00,,,0.00,weatherlink.com 1.10,2013-01-17 21:36:00,
2013-01-17 14:51:00,46.8,17.0,26.00,West,272,7.0,18.0,30,0.00,,,0.00,weatherlink.com 1.10,2013-01-17 21:51:00,
2013-01-17 15:06:00,46.4,17.0,25.99,West,259,11.0,16.0,31,0.00,,,0.00,weatherlink.com 1.10,2013-01-17 22:06:00,
2013-01-17 15:21:00,46.4,17.0,25.99,WNW,283,8.0,16.0,31,0.00,,,0.00,weatherlink.com 1.10,2013-01-17 22:21:00,
2013-01-17 15:36:00,46.4,18.0,25.98,West,259,6.0,11.0,32,0.00,,,0.00,weatherlink.com 1.10,2013-01-17 22:36:00,
2013-01-17 15:51:00,45.9,18.0,25.98,West,270,8.0,12.0,33,0.00,,,0.00,weatherlink.com 1.10,2013-01-17 22:51:00,
2013-01-17 16:06:00,45.5,18.0,25.98,WNW,283,5.0,6.0,33,0.00,,,0.00,weatherlink.com 1.10,2013-01-17 23:06:00,
2013-01-17 16:21:00,44.2,18.0,25.98,WSW,256,3.0,6.0,35,0.00,,,0.00,weatherlink.com 1.10,2013-01-17 23:21:00,
2013-01-17 16:36:00,42.6,18.0,25.98,West,263,3.0,4.0,37,0.00,,,0.00,weatherlink.com 1.10,2013-01-17 23:36:00,
2013-01-17 16:51:00,39.8,18.0,25.97,West,274,2.0,4.0,41,0.00,,,0.00,weatherlink.com 1.10,2013-01-17 23:51:00,
2013-01-17 17:06:00,39.0,18.0,25.96,West,259,2.0,5.0,42,0.00,,,0.00,weatherlink.com 1.10,2013-01-18 00:06:00,
2013-01-17 17:21:00,36.1,16.0,25.96,WSW,237,9.0,9.0,45,0.00,,,0.00,weatherlink.com 1.10,2013-01-18 00:21:00,
2013-01-17 17:36:00,36.0,17.0,25.96,West,280,4.0,6.0,46,0.00,,,0.00,weatherlink.com 1.10,2013-01-18 00:36:00,
2013-01-17 17:51:00,33.9,17.0,25.96,SW,229,7.0,7.0,50,0.00,,,0.00,weatherlink.com 1.10,2013-01-18 00:51:00,
2013-01-17 18:06:00,34.3,17.0,25.96,WSW,242,6.0,8.0,50,0.00,,,0.00,weatherlink.com 1.10,2013-01-18 01:06:00,
2013-01-17 18:21:00,34.6,18.0,25.96,West,267,4.0,8.0,50,0.00,,,0.00,weatherlink.com 1.10,2013-01-18 01:21:00,
2013-01-17 18:36:00,34.1,17.0,25.95,West,261,4.0,6.0,50,0.00,,,0.00,weatherlink.com 1.10,2013-01-18 01:36:00,
2013-01-17 18:51:00,32.9,17.0,25.95,WSW,246,4.0,6.0,52,0.00,,,0.00,weatherlink.com 1.10,2013-01-18 01:51:00,
2013-01-17 19:06:00,33.2,18.0,25.95,West,264,7.0,8.0,53,0.00,,,0.00,weatherlink.com 1.10,2013-01-18 02:06:00,
2013-01-17 19:21:00,33.3,17.0,25.95,WSW,253,5.0,7.0,51,0.00,,,0.00,weatherlink.com 1.10,2013-01-18 02:21:00,
2013-01-17 19:36:00,31.9,17.0,25.95,WSW,256,4.0,5.0,54,0.00,,,0.00,weatherlink.com 1.10,2013-01-18 02:36:00,
2013-01-17 19:51:00,31.0,17.0,25.94,WNW,287,7.0,7.0,57,0.00,,,0.00,weatherlink.com 1.10,2013-01-18 02:51:00,
2013-01-17 20:07:00,30.9,17.0,25.94,West,269,6.0,10.0,57,0.00,,,0.00,weatherlink.com 1.10,2013-01-18 03:07:00,
2013-01-17 20:22:00,29.4,17.0,25.93,West,262,6.0,8.0,60,0.00,,,0.00,weatherlink.com 1.10,2013-01-18 03:22:00,
2013-01-17 20:37:00,29.8,17.0,25.92,WNW,283,4.0,8.0,60,0.00,,,0.00,weatherlink.com 1.10,2013-01-18 03:37:00,
2013-01-17 20:52:00,30.3,17.0,25.91,WSW,257,8.0,9.0,59,0.00,,,0.00,weatherlink.com 1.10,2013-01-18 03:52:00,
2013-01-17 21:07:00,28.8,17.0,25.91,West,265,5.0,8.0,61,0.00,,,0.00,weatherlink.com 1.10,2013-01-18 04:07:00,
2013-01-17 21:22:00,26.5,16.0,25.91,WSW,254,3.0,5.0,65,0.00,,,0.00,weatherlink.com 1.10,2013-01-18 04:22:00,
2013-01-17 21:37:00,26.5,17.0,25.90,West,263,5.0,9.0,67,0.00,,,0.00,weatherlink.com 1.10,2013-01-18 04:37:00,
2013-01-17 22:07:00,29.5,17.0,25.88,WNW,289,7.0,12.0,59,0.00,,,0.00,weatherlink.com 1.10,2013-01-18 05:07:00,
2013-01-17 22:22:00,27.5,16.0,25.88,West,274,3.0,9.0,62,0.00,,,0.00,weatherlink.com 1.10,2013-01-18 05:22:00,
2013-01-17 22:37:00,26.1,16.0,25.88,WNW,289,4.0,8.0,65,0.00,,,0.00,weatherlink.com 1.10,2013-01-18 05:37:00,
2013-01-17 22:52:00,25.7,15.0,25.87,West,278,4.0,10.0,65,0.00,,,0.00,weatherlink.com 1.10,2013-01-18 05:52:00,
2013-01-17 23:07:00,26.5,16.0,25.87,NW,308,9.0,12.0,64,0.00,,,0.00,weatherlink.com 1.10,2013-01-18 06:07:00,
2013-01-17 23:22:00,29.7,16.0,25.86,WNW,283,8.0,17.0,56,0.00,,,0.00,weatherlink.com 1.10,2013-01-18 06:22:00,
2013-01-17 23:37:00,28.7,15.0,25.86,NW,305,13.0,16.0,57,0.00,,,0.00,weatherlink.com 1.10,2013-01-18 06:37:00,
2013-01-17 23:52:00,27.3,15.0,25.86,NW,307,8.0,13.0,60,0.00,,,0.00,weatherlink.com 1.10,2013-01-18 06:52:00,